Time,TemperatureF,DewpointF,PressureIn,WindDirection,WindDirectionDegrees,WindSpeedMPH,WindSpeedGustMPH,Humidity,HourlyPrecipIn,Conditions,Clouds,dailyrainin,SoftwareType,DateUTC
2013-06-08 00:03:00,51.0,51.0,29.83,NW,320,0.0,6.0,100,0.04,,,1.07,,2013-06-08 04:03:00,
2013-06-08 00:13:00,51.0,51.0,29.83,NW,320,0.0,6.0,100,0.04,,,1.07,,2013-06-08 04:13:00,
2013-06-08 00:23:00,51.0,51.0,29.83,North,359,0.0,0.0,100,0.04,,,1.07,,2013-06-08 04:23:00,
2013-06-08 00:33:00,51.0,51.0,29.81,North,359,0.0,1.0,100,0.03,,,1.08,,2013-06-08 04:33:00,
2013-06-08 00:42:00,51.0,51.0,29.81,North,359,0.0,1.0,100,0.03,,,1.08,,2013-06-08 04:42:00,
2013-06-08 00:53:00,51.0,51.0,29.82,North,359,0.0,0.0,100,0.03,,,1.08,,2013-06-08 04:53:00,
2013-06-08 01:02:00,51.0,51.0,29.80,NNE,18,0.0,3.0,100,0.05,,,1.10,,2013-06-08 05:02:00,
2013-06-08 01:12:00,51.0,51.0,29.80,NNE,18,0.0,3.0,100,0.05,,,1.10,,2013-06-08 05:12:00,
2013-06-08 01:22:00,51.0,51.0,29.79,WSW,248,0.0,2.0,100,0.04,,,1.08,,2013-06-08 05:22:00,
2013-06-08 01:32:00,51.0,51.0,29.78,NNE,14,1.0,7.0,100,0.03,,,1.08,,2013-06-08 05:32:00,
2013-06-08 01:42:00,51.0,51.0,29.78,NNE,14,1.0,7.0,100,0.03,,,1.08,,2013-06-08 05:42:00,
2013-06-08 01:53:00,51.0,51.0,29.78,NNE,31,0.0,7.0,100,0.05,,,1.10,,2013-06-08 05:53:00,
2013-06-08 02:02:00,51.0,51.0,29.75,North,359,3.0,7.0,100,0.05,,,1.12,,2013-06-08 06:02:00,
2013-06-08 02:12:00,51.0,51.0,29.75,North,359,3.0,7.0,100,0.05,,,1.12,,2013-06-08 06:12:00,
2013-06-08 02:22:00,51.0,51.0,29.76,North,350,0.0,1.0,100,0.08,,,1.15,,2013-06-08 06:22:00,
2013-06-08 02:32:00,51.0,51.0,29.75,NW,326,0.0,2.0,100,0.14,,,1.21,,2013-06-08 06:32:00,
2013-06-08 02:42:00,51.0,51.0,29.75,NW,326,0.0,2.0,100,0.14,,,1.21,,2013-06-08 06:42:00,
2013-06-08 02:53:00,51.0,51.0,29.74,North,359,0.0,3.0,100,0.14,,,1.23,,2013-06-08 06:53:00,
2013-06-08 03:02:00,51.0,51.0,29.74,NW,322,1.0,3.0,100,0.12,,,1.23,,2013-06-08 07:02:00,
2013-06-08 03:12:00,51.0,51.0,29.74,NW,322,1.0,3.0,100,0.12,,,1.23,,2013-06-08 07:12:00,
2013-06-08 03:22:00,51.0,51.0,29.72,North,353,3.0,7.0,100,0.09,,,1.23,,2013-06-08 07:22:00,
2013-06-08 03:32:00,51.0,51.0,29.72,North,349,1.0,6.0,100,0.04,,,1.24,,2013-06-08 07:32:00,
2013-06-08 03:42:00,51.0,51.0,29.70,North,350,0.0,7.0,100,0.02,,,1.24,,2013-06-08 07:42:00,
2013-06-08 03:52:00,51.0,51.0,29.70,North,350,0.0,7.0,100,0.02,,,1.24,,2013-06-08 07:52:00,
2013-06-08 04:02:00,51.0,51.0,29.70,North,352,0.0,5.0,100,0.04,,,1.26,,2013-06-08 08:02:00,
2013-06-08 04:12:00,51.0,51.0,29.70,North,352,0.0,5.0,100,0.04,,,1.26,,2013-06-08 08:12:00,
2013-06-08 04:22:00,52.0,52.0,29.69,NNW,330,0.0,6.0,100,0.05,,,1.28,,2013-06-08 08:22:00,
2013-06-08 04:32:00,52.0,52.0,29.69,NW,309,0.0,5.0,100,0.04,,,1.28,,2013-06-08 08:32:00,
2013-06-08 04:42:00,52.0,52.0,29.69,NW,309,0.0,5.0,100,0.04,,,1.28,,2013-06-08 08:42:00,
2013-06-08 04:53:00,52.0,52.0,29.69,NE,35,0.0,6.0,100,0.04,,,1.28,,2013-06-08 08:53:00,
2013-06-08 05:02:00,52.0,52.0,29.69,NNW,340,1.0,5.0,100,0.03,,,1.29,,2013-06-08 09:02:00,
2013-06-08 05:12:00,52.0,52.0,29.69,NNW,340,1.0,5.0,100,0.03,,,1.29,,2013-06-08 09:12:00,
2013-06-08 05:22:00,52.0,52.0,29.68,NW,311,0.0,6.0,100,0.01,,,1.29,,2013-06-08 09:22:00,
2013-06-08 05:33:00,52.0,52.0,29.68,North,359,0.0,3.0,100,0.01,,,1.29,,2013-06-08 09:33:00,
2013-06-08 05:43:00,52.0,52.0,29.68,North,359,0.0,3.0,100,0.01,,,1.29,,2013-06-08 09:43:00,
2013-06-08 05:53:00,52.0,52.0,29.68,NW,311,0.0,6.0,100,0.02,,,1.30,,2013-06-08 09:53:00,
2013-06-08 06:03:00,52.0,52.0,29.69,North,354,2.0,5.0,100,0.01,,,1.30,,2013-06-08 10:03:00,
2013-06-08 06:12:00,52.0,52.0,29.69,North,354,2.0,5.0,100,0.01,,,1.30,,2013-06-08 10:12:00,
2013-06-08 06:22:00,52.0,52.0,29.68,West,275,2.0,8.0,100,0.01,,,1.30,,2013-06-08 10:22:00,
2013-06-08 06:33:00,52.0,52.0,29.69,NNW,346,0.0,7.0,100,0.01,,,1.30,,2013-06-08 10:33:00,
2013-06-08 06:43:00,52.0,52.0,29.69,NNW,346,0.0,7.0,100,0.01,,,1.30,,2013-06-08 10:43:00,
2013-06-08 06:53:00,53.0,53.0,29.67,NW,326,0.0,7.0,100,0.01,,,1.31,,2013-06-08 10:53:00,
2013-06-08 07:02:00,53.0,53.0,29.67,NNW,330,0.0,6.0,100,0.01,,,1.31,,2013-06-08 11:02:00,
2013-06-08 07:12:00,53.0,53.0,29.67,NNW,330,0.0,6.0,100,0.01,,,1.31,,2013-06-08 11:12:00,
2013-06-08 07:22:00,53.0,53.0,29.68,NW,322,0.0,6.0,100,0.01,,,1.30,,2013-06-08 11:22:00,
2013-06-08 07:32:00,54.0,54.0,29.67,NNW,336,0.0,6.0,100,0.01,,,1.30,,2013-06-08 11:32:00,
2013-06-08 07:42:00,54.0,54.0,29.67,NNW,336,0.0,6.0,100,0.01,,,1.30,,2013-06-08 11:42:00,
2013-06-08 07:52:00,54.0,54.0,29.68,NNW,333,3.0,8.0,100,0.00,,,1.30,,2013-06-08 11:52:00,
2013-06-08 08:02:00,55.0,55.0,29.70,North,354,0.0,11.0,100,0.00,,,1.30,,2013-06-08 12:02:00,
2013-06-08 08:12:00,55.0,55.0,29.70,North,354,0.0,11.0,100,0.00,,,1.30,,2013-06-08 12:12:00,
2013-06-08 08:22:00,55.0,55.0,29.70,WNW,296,0.0,7.0,100,0.00,,,1.30,,2013-06-08 12:22:00,
2013-06-08 08:32:00,55.0,55.0,29.70,NNW,342,1.0,11.0,100,0.00,,,1.30,,2013-06-08 12:32:00,
2013-06-08 08:42:00,55.0,55.0,29.70,NNW,342,1.0,11.0,100,0.00,,,1.30,,2013-06-08 12:42:00,
2013-06-08 08:52:00,55.0,55.0,29.72,North,359,0.0,1.0,100,0.00,,,1.30,,2013-06-08 12:52:00,
2013-06-08 09:02:00,57.0,57.0,29.72,WNW,291,0.0,5.0,100,0.00,,,1.30,,2013-06-08 13:02:00,
2013-06-08 09:12:00,57.0,57.0,29.72,WNW,291,0.0,5.0,100,0.00,,,1.30,,2013-06-08 13:12:00,
2013-06-08 09:22:00,58.0,58.0,29.73,North,353,1.0,7.0,100,0.11,,,1.39,,2013-06-08 13:22:00,
2013-06-08 09:32:00,58.0,58.0,29.74,NNW,333,0.0,6.0,100,0.11,,,1.39,,2013-06-08 13:32:00,
2013-06-08 09:42:00,58.0,58.0,29.74,NNW,333,0.0,6.0,100,0.11,,,1.39,,2013-06-08 13:42:00,
2013-06-08 09:52:00,59.0,59.0,29.74,NNW,342,3.0,10.0,100,0.11,,,1.39,,2013-06-08 13:52:00,
2013-06-08 10:02:00,60.0,59.0,29.75,NE,40,1.0,12.0,98,0.11,,,1.39,,2013-06-08 14:02:00,
2013-06-08 10:12:00,60.0,59.0,29.75,NE,40,1.0,12.0,98,0.11,,,1.39,,2013-06-08 14:12:00,
2013-06-08 10:22:00,62.0,61.0,29.75,NE,34,1.0,8.0,95,0.00,,,1.39,,2013-06-08 14:22:00,
2013-06-08 10:32:00,62.0,60.0,29.74,East,95,0.0,7.0,93,0.00,,,1.39,,2013-06-08 14:32:00,
2013-06-08 10:42:00,62.0,60.0,29.74,East,95,0.0,7.0,93,0.00,,,1.39,,2013-06-08 14:42:00,
2013-06-08 10:52:00,64.0,62.0,29.75,NNE,28,0.0,3.0,92,0.00,,,1.39,,2013-06-08 14:52:00,
2013-06-08 11:02:00,65.0,62.0,29.75,ENE,64,0.0,0.0,90,0.00,,,1.39,,2013-06-08 15:02:00,
2013-06-08 11:12:00,65.0,62.0,29.75,ENE,64,0.0,0.0,90,0.00,,,1.39,,2013-06-08 15:12:00,
2013-06-08 11:22:00,66.0,63.0,29.76,SSE,167,0.0,1.0,90,0.00,,,1.39,,2013-06-08 15:22:00,
2013-06-08 11:32:00,66.0,62.0,29.77,NNW,336,2.0,6.0,87,0.00,,,1.39,,2013-06-08 15:32:00,
2013-06-08 11:42:00,66.0,62.0,29.77,NNW,336,2.0,6.0,87,0.00,,,1.39,,2013-06-08 15:42:00,
2013-06-08 11:53:00,67.0,62.0,29.77,North,356,1.0,10.0,85,0.00,,,1.39,,2013-06-08 15:53:00,
2013-06-08 12:03:00,69.0,64.0,29.78,NNE,18,3.0,14.0,83,0.00,,,1.39,,2013-06-08 16:03:00,
2013-06-08 12:12:00,69.0,64.0,29.78,NNE,18,3.0,14.0,83,0.00,,,1.39,,2013-06-08 16:12:00,
2013-06-08 12:23:00,70.0,64.0,29.78,SE,136,1.0,13.0,82,0.01,,,1.34,,2013-06-08 16:23:00,
2013-06-08 12:33:00,71.0,64.0,29.79,SE,130,2.0,13.0,79,0.01,,,1.34,,2013-06-08 16:33:00,
2013-06-08 12:42:00,71.0,64.0,29.79,SE,130,2.0,13.0,79,0.01,,,1.34,,2013-06-08 16:42:00,
2013-06-08 12:53:00,70.0,62.0,29.79,ESE,121,5.0,10.0,77,0.01,,,1.34,,2013-06-08 16:53:00,
2013-06-08 13:02:00,71.0,64.0,29.79,NW,305,0.0,7.0,78,0.01,,,1.34,,2013-06-08 17:02:00,
2013-06-08 13:12:00,71.0,64.0,29.79,NW,305,0.0,7.0,78,0.01,,,1.34,,2013-06-08 17:12:00,
2013-06-08 13:23:00,72.0,64.0,29.79,South,179,3.0,11.0,75,0.00,,,1.26,,2013-06-08 17:23:00,
2013-06-08 13:32:00,73.0,65.0,29.80,West,264,0.0,7.0,75,0.00,,,1.26,,2013-06-08 17:32:00,
2013-06-08 13:42:00,73.0,65.0,29.80,West,264,0.0,7.0,75,0.00,,,1.26,,2013-06-08 17:42:00,
2013-06-08 13:52:00,74.0,65.0,29.80,NW,323,1.0,7.0,73,0.00,,,1.26,,2013-06-08 17:52:00,
2013-06-08 14:02:00,73.0,65.0,29.80,NNE,28,0.0,8.0,75,0.00,,,1.26,,2013-06-08 18:02:00,
2013-06-08 14:12:00,73.0,65.0,29.80,NNE,28,0.0,8.0,75,0.00,,,1.26,,2013-06-08 18:12:00,
2013-06-08 14:22:00,73.0,64.0,29.81,SSW,195,0.0,8.0,74,0.00,,,1.18,,2013-06-08 18:22:00,
2013-06-08 14:32:00,72.0,64.0,29.81,NW,326,2.0,7.0,75,0.00,,,1.18,,2013-06-08 18:32:00,
2013-06-08 14:42:00,72.0,64.0,29.81,NW,326,2.0,7.0,75,0.00,,,1.18,,2013-06-08 18:42:00,
2013-06-08 14:52:00,72.0,64.0,29.82,West,260,1.0,5.0,75,0.00,,,1.18,,2013-06-08 18:52:00,
2013-06-08 15:03:00,72.0,64.0,29.83,NW,311,1.0,8.0,77,0.00,,,1.18,,2013-06-08 19:03:00,
2013-06-08 15:12:00,72.0,64.0,29.83,NW,311,1.0,8.0,77,0.00,,,1.18,,2013-06-08 19:12:00,
2013-06-08 15:22:00,73.0,64.0,29.83,WNW,296,0.0,6.0,73,0.00,,,1.08,,2013-06-08 19:22:00,
2013-06-08 15:32:00,73.0,63.0,29.84,WNW,294,5.0,13.0,71,0.00,,,1.08,,2013-06-08 19:32:00,
2013-06-08 15:42:00,73.0,63.0,29.84,WNW,294,5.0,13.0,71,0.00,,,1.08,,2013-06-08 19:42:00,
2013-06-08 15:53:00,74.0,64.0,29.84,NNE,27,1.0,6.0,72,0.00,,,1.08,,2013-06-08 19:53:00,
2013-06-08 16:02:00,73.0,64.0,29.85,North,3,2.0,13.0,74,0.00,,,1.08,,2013-06-08 20:02:00,
2013-06-08 16:12:00,73.0,64.0,29.85,North,3,2.0,13.0,74,0.00,,,1.08,,2013-06-08 20:12:00,
2013-06-08 16:22:00,72.0,63.0,29.85,NW,306,2.0,10.0,74,0.00,,,1.03,,2013-06-08 20:22:00,
2013-06-08 16:32:00,71.0,63.0,29.86,NW,319,0.0,6.0,75,0.00,,,1.03,,2013-06-08 20:32:00,
2013-06-08 16:42:00,71.0,63.0,29.86,NW,319,0.0,6.0,75,0.00,,,1.03,,2013-06-08 20:42:00,
2013-06-08 16:53:00,71.0,63.0,29.86,NE,41,0.0,3.0,75,0.00,,,1.03,,2013-06-08 20:53:00,
2013-06-08 17:02:00,70.0,62.0,29.88,NNW,339,1.0,3.0,76,0.00,,,1.03,,2013-06-08 21:02:00,
2013-06-08 17:12:00,70.0,62.0,29.88,NNW,339,1.0,3.0,76,0.00,,,1.03,,2013-06-08 21:12:00,
2013-06-08 17:22:00,70.0,63.0,29.88,NW,313,0.0,6.0,79,0.00,,,0.88,,2013-06-08 21:22:00,
2013-06-08 17:33:00,69.0,63.0,29.89,WNW,292,0.0,3.0,80,0.00,,,0.88,,2013-06-08 21:33:00,
2013-06-08 17:43:00,69.0,63.0,29.89,WNW,292,0.0,3.0,80,0.00,,,0.88,,2013-06-08 21:43:00,
2013-06-08 17:53:00,69.0,63.0,29.89,WNW,298,0.0,0.0,81,0.00,,,0.88,,2013-06-08 21:53:00,
2013-06-08 18:02:00,68.0,63.0,29.90,NW,309,0.0,5.0,83,0.00,,,0.88,,2013-06-08 22:02:00,
2013-06-08 18:12:00,68.0,63.0,29.89,NNW,336,0.0,1.0,83,0.00,,,0.81,,2013-06-08 22:12:00,
2013-06-08 18:23:00,68.0,63.0,29.89,NNW,336,0.0,1.0,83,0.00,,,0.81,,2013-06-08 22:23:00,
2013-06-08 18:33:00,68.0,63.0,29.91,WSW,250,0.0,0.0,85,0.00,,,0.81,,2013-06-08 22:33:00,
2013-06-08 18:42:00,68.0,63.0,29.90,NW,306,0.0,2.0,83,0.00,,,0.81,,2013-06-08 22:42:00,
2013-06-08 18:53:00,68.0,63.0,29.90,NW,306,0.0,2.0,83,0.00,,,0.81,,2013-06-08 22:53:00,
2013-06-08 19:02:00,68.0,63.0,29.91,NW,306,0.0,0.0,85,0.00,,,0.81,,2013-06-08 23:02:00,
2013-06-08 19:12:00,68.0,64.0,29.91,NNE,16,0.0,3.0,86,0.00,,,0.71,,2013-06-08 23:12:00,
2013-06-08 19:22:00,68.0,64.0,29.91,NNE,16,0.0,3.0,86,0.00,,,0.71,,2013-06-08 23:22:00,
2013-06-08 19:32:00,68.0,64.0,29.91,NNE,16,0.0,0.0,86,0.00,,,0.71,,2013-06-08 23:32:00,
2013-06-08 19:42:00,68.0,64.0,29.91,NNE,16,0.0,0.0,86,0.00,,,0.71,,2013-06-08 23:42:00,
2013-06-08 19:52:00,68.0,64.0,29.92,NNE,16,0.0,0.0,86,0.00,,,0.71,,2013-06-08 23:52:00,
2013-06-08 20:02:00,68.0,64.0,29.92,NNE,14,0.0,0.0,88,0.00,,,0.71,,2013-06-09 00:02:00,
2013-06-08 20:12:00,68.0,64.0,29.92,NNE,14,0.0,0.0,88,0.00,,,0.71,,2013-06-09 00:12:00,
2013-06-08 20:22:00,67.0,64.0,29.93,NNE,14,0.0,0.0,90,0.00,,,0.63,,2013-06-09 00:22:00,
2013-06-08 20:32:00,67.0,64.0,29.93,NNE,14,0.0,0.0,90,0.00,,,0.63,,2013-06-09 00:32:00,
2013-06-08 20:42:00,67.0,64.0,29.93,NNE,14,0.0,0.0,90,0.00,,,0.63,,2013-06-09 00:42:00,
2013-06-08 20:52:00,66.0,64.0,29.93,NNE,14,0.0,0.0,93,0.00,,,0.63,,2013-06-09 00:52:00,
2013-06-08 21:02:00,66.0,64.0,29.94,NNE,14,0.0,0.0,94,0.00,,,0.63,,2013-06-09 01:02:00,
2013-06-08 21:12:00,65.0,64.0,29.94,NNE,14,0.0,0.0,97,0.00,,,0.56,,2013-06-09 01:12:00,
2013-06-08 21:22:00,65.0,64.0,29.94,NNE,14,0.0,0.0,97,0.00,,,0.56,,2013-06-09 01:22:00,
2013-06-08 21:32:00,64.0,63.0,29.95,NNE,14,0.0,0.0,98,0.00,,,0.56,,2013-06-09 01:32:00,
2013-06-08 21:42:00,64.0,63.0,29.95,NNE,14,0.0,0.0,98,0.00,,,0.56,,2013-06-09 01:42:00,
2013-06-08 21:52:00,64.0,64.0,29.96,NNE,14,0.0,0.0,100,0.00,,,0.56,,2013-06-09 01:52:00,
2013-06-08 22:02:00,63.0,63.0,29.97,NNE,14,0.0,0.0,100,0.00,,,0.56,,2013-06-09 02:02:00,
2013-06-08 22:12:00,63.0,63.0,29.97,NNE,14,0.0,0.0,100,0.00,,,0.56,,2013-06-09 02:12:00,
2013-06-08 22:22:00,63.0,63.0,29.98,NNE,14,0.0,0.0,100,0.00,,,0.49,,2013-06-09 02:22:00,
2013-06-08 22:32:00,63.0,63.0,29.98,NNE,14,0.0,0.0,100,0.00,,,0.49,,2013-06-09 02:32:00,
2013-06-08 22:42:00,63.0,63.0,29.98,NNE,14,0.0,0.0,100,0.00,,,0.49,,2013-06-09 02:42:00,
2013-06-08 22:52:00,63.0,63.0,29.98,NNE,14,0.0,0.0,100,0.00,,,0.49,,2013-06-09 02:52:00,
2013-06-08 23:02:00,62.0,62.0,29.99,NNE,14,0.0,0.0,100,0.00,,,0.49,,2013-06-09 03:02:00,
2013-06-08 23:12:00,62.0,62.0,29.99,NNE,14,0.0,0.0,100,0.00,,,0.49,,2013-06-09 03:12:00,
2013-06-08 23:22:00,62.0,62.0,29.98,NNE,14,0.0,0.0,100,0.00,,,0.47,,2013-06-09 03:22:00,
2013-06-08 23:33:00,61.0,61.0,29.98,NNE,14,0.0,0.0,100,0.00,,,0.47,,2013-06-09 03:33:00,
2013-06-08 23:43:00,61.0,61.0,29.98,NNE,14,0.0,0.0,100,0.00,,,0.47,,2013-06-09 03:43:00,
2013-06-08 23:53:00,61.0,61.0,29.99,NNE,14,0.0,0.0,100,0.00,,,0.47,,2013-06-09 03:53:00,